Details From MMPB - Hermanos Serdan Intl
To MMPN - LICENCIADO Y GEN IGNACIO LOPEZ RAYON
Flight Number -
Tags generated
Created
Modified
Stats Distance 209 nm / 387 km
Max Altitude 24,300 ft / 7,407 m
Waypoints 5
Social Downloads 1
Likes 0
Share VATSIM

Download

Looking for another format? Having issues loading an existing format? Contact us
Advertisement - Login to hide

Notes

Basic altitude profile: - Ascent Rate: 2500ft/min - Ascent Speed: 250kts - Cruise Altitude: 35000ft - Cruise Speed: 420kts - Descent Rate: 1500ft/min - Descent Speed: 250kts Options: - Use NATs: yes - Use PACOTS: yes - Use low airways: yes - Use high airways: yes

Route

MMPB TLC V18 UPN MMPN

ID Type Via Altitude Latitude Longitude Leg Dist Tot Dist Heading (true) Name
O MMPB APT - 0 ft / 0 m 19.15814˚ -98.37145˚ - 0 nm - Hermanos Serdan Intl
TLC VOR - 24,300 ft / 7,407 m 19.33286˚ -99.56103˚ 68 nm 68 nm 279° / 279° TOLUCA VOR-DME
TUZAS FIX V18 (AWY-LO) 16,000 ft / 4,877 m 19.38367˚ -101.12824˚ 88 nm 157 nm 272° / 272° -
UPN VOR V18 (AWY-LO) 16,000 ft / 4,877 m 19.39576˚ -102.04109˚ 51 nm 208 nm 271° / 271° URUAPAN VOR-DME
O MMPN APT - 0 ft / 0 m 19.39669˚ -102.03906˚ 0 nm 208 nm 64° / 64° LICENCIADO Y GEN IGNACIO LOPEZ RAYON

Altitude Profile

Advertisement - Login to hide

Weather


0- 5 10 15 20 25 30 35+ Temperature / ° C

Clouds and Precipitation
Forecast for 2017-12-17 00:00 UTC. Updated an hour ago

Ground ~20,000 ft ~40,000 ft Winds

MMPB

Details ICAO MMPB (PBC)
Name Hermanos Serdan Intl
Region Mexico
Timezone America/Mexico_City (UTC-6.0)
Stats Elevation 7,361 ft / 2,244 m (AMSL)
Location 19.158144° -98.371446°
Runways 1
Magnetic Variation 4.364° E

METAR

MMPB 162146Z 16014G24KT 11SM FEW020 SCT220 20/05 A3025 RMK 8/102 HZY

Decode

TAF

TAF AMD MMPB 162128Z 1621/1718 16017G27KT P6SM SCT020 SCT220 BECMG 1701/1702 20008KT FM171200 00000KT 6SM HZ SCT020 BKN220

Decode

Departure Runways

ID Width Length Bearing (true) Bearing (mag) Surface Threshold Offset Overrun Length
17 148 ft / 45 m 11,933 ft / 3,637 m 178.06° 173.70° Asphalt 0 ft / 0 m 185 ft / 56 m
35 148 ft / 45 m 11,933 ft / 3,637 m 358.06° 353.70° Asphalt 0 ft / 0 m 232 ft / 71 m

MMPN

Details ICAO MMPN (UPN)
Name LICENCIADO Y GEN IGNACIO LOPEZ RAYON
Region Mexico
Timezone America/Mexico_City (UTC-6.0)
Stats Elevation 5,258 ft / 1,603 m (AMSL)
Location 19.396692° -102.039056°
Runways 1
Magnetic Variation 5.794° E

METAR

MMPN 162154Z 18008KT 7SM BKN035CB 20/13 A3013 RMK 8/300 HZY

Decode

TAF

TAF AMD MMPN 162213Z 1622/1718 18008KT P6SM BKN035CB FM170100 00000KT P6SM BKN080 BKN250 FM171200 00000KT 6SM HZ SCT080 BKN250

Decode

Destination Runways

ID Width Length Bearing (true) Bearing (mag) Surface Threshold Offset Overrun Length
02 148 ft / 45 m 7,920 ft / 2,414 m 31.16° 25.37° Asphalt 0 ft / 0 m 200 ft / 61 m
20 148 ft / 45 m 7,920 ft / 2,414 m 211.16° 205.37° Asphalt 0 ft / 0 m 200 ft / 61 m

Popular Alternatives